This is the latest recevied weather packets stored in our database for station/object NR6G-15. If no packets are shown the sender has not sent any weather packets the latest 10 day(s).
| Time | Temp. | Humidity | Pressure | Rain* | Wind** | Luminosity | Snow |
|---|---|---|---|---|---|---|---|
| 1787879274 | 19.44° C | 53% | 1026.5 hPa | 0 mm | - | - | - |
| 1787878974 | 20° C | 53% | 1026.5 hPa | 0 mm | - | - | - |
| 1787878674 | 20° C | 53% | 1026.4 hPa | 0 mm | - | - | - |
| 1787878374 | 20° C | 53% | 1026.4 hPa | 0 mm | - | - | - |
| 1787878074 | 20° C | 52% | 1026.2 hPa | 0 mm | - | - | - |
| 1787877774 | 20.56° C | 52% | 1026.1 hPa | 0 mm | - | - | - |
| 1787877474 | 20.56° C | 50% | 1026 hPa | 0 mm | - | - | - |
| 1787877174 | 20.56° C | 50% | 1025.9 hPa | 0 mm | - | - | - |
| 1787876874 | 20.56° C | 50% | 1026 hPa | 0 mm | - | - | - |
| 1787876574 | 20° C | 49% | 1026 hPa | 0 mm | - | - | - |
| 1787876274 | 20° C | 50% | 1026 hPa | 0 mm | - | - | - |
| 1787875974 | 19.44° C | 51% | 1026 hPa | 0 mm | - | - | - |
| 1787875674 | 20° C | 51% | 1026.1 hPa | 0 mm | - | - | - |
| 1787875374 | 20° C | 52% | 1026.8 hPa | 0 mm | - | - | - |
| 1787875074 | 20° C | 50% | 1026.7 hPa | 0 mm | - | - | - |
| 1787874774 | 20° C | 53% | 1026.8 hPa | 0 mm | - | - | - |
| 1787874474 | 19.44° C | 55% | 1026.9 hPa | 0 mm | - | - | - |
| 1787874174 | 19.44° C | 53% | 1026.9 hPa | 0 mm | - | - | - |
| 1787873874 | 19.44° C | 53% | 1026.9 hPa | 0 mm | - | - | - |
| 1787873574 | 19.44° C | 55% | 1027 hPa | 0 mm | - | - | - |
| 1787873274 | 18.33° C | 59% | 1027.2 hPa | 0 mm | - | - | - |
| 1787872974 | 17.78° C | 57% | 1027.4 hPa | 0 mm | - | - | - |
| 1787872673 | 17.78° C | 63% | 1027.6 hPa | 0 mm | - | - | - |
| 1787872373 | 17.22° C | 61% | 1027.8 hPa | 0 mm | - | - | - |
| 1787872074 | 17.22° C | 64% | 1028.1 hPa | 0 mm | - | - | - |
* Rain latest hour (hover to see other rain measurements)
** Current wind speed in m/s (hover to see current wind gust speed)